Time,TemperatureF,DewpointF,PressureIn,WindDirection,WindDirectionDegrees,WindSpeedMPH,WindSpeedGustMPH,Humidity,HourlyPrecipIn,Conditions,Clouds,dailyrainin,SoftwareType,DateUTC
2013-03-01 00:05:00,49.5,44.2,30.34,East,90,0.7,1.6,82,0.02,,,0.01,pywws,2013-03-01 08:05:00,
2013-03-01 00:10:00,49.6,44.7,30.33,West,270,2.2,7.6,83,0.04,,,0.02,pywws,2013-03-01 08:10:00,
2013-03-01 00:16:00,49.6,44.7,30.33,NE,45,1.6,2.2,83,0.05,,,0.04,pywws,2013-03-01 08:16:00,
2013-03-01 00:22:00,49.6,44.7,30.33,NE,45,2.2,3.1,83,0.07,,,0.06,pywws,2013-03-01 08:22:00,
2013-03-01 00:27:00,50.0,44.4,30.34,West,270,1.6,3.8,81,0.07,,,0.06,pywws,2013-03-01 08:27:00,
2013-03-01 00:33:00,49.6,44.7,30.34,South,180,0.7,1.6,83,0.08,,,0.07,pywws,2013-03-01 08:33:00,
2013-03-01 00:38:00,50.0,44.7,30.34,North,0,2.2,3.8,82,0.09,,,0.08,pywws,2013-03-01 08:38:00,
2013-03-01 00:44:00,50.7,45.1,30.34,NW,315,3.1,6.0,81,0.09,,,0.08,pywws,2013-03-01 08:44:00,
2013-03-01 00:50:00,50.0,44.4,30.34,South,180,3.8,6.9,81,0.09,,,0.09,pywws,2013-03-01 08:50:00,
2013-03-01 00:55:00,49.8,44.5,30.34,South,180,1.6,2.2,82,0.11,,,0.11,pywws,2013-03-01 08:55:00,
2013-03-01 01:01:00,49.8,44.5,30.34,North,-999,0.0,2.2,82,0.09,,,0.11,pywws,2013-03-01 09:01:00,
2013-03-01 01:06:00,49.6,44.7,30.34,West,270,3.1,5.4,83,0.11,,,0.12,pywws,2013-03-01 09:06:00,
2013-03-01 01:12:00,49.6,44.7,30.34,South,180,1.6,3.1,83,0.09,,,0.12,pywws,2013-03-01 09:12:00,
2013-03-01 01:18:00,49.5,44.8,30.34,South,180,0.7,2.2,84,0.08,,,0.12,pywws,2013-03-01 09:18:00,
2013-03-01 01:23:00,50.0,45.0,30.34,East,90,0.7,2.2,83,0.06,,,0.12,pywws,2013-03-01 09:23:00,
2013-03-01 01:29:00,49.5,44.8,30.34,West,270,1.6,3.1,84,0.05,,,0.12,pywws,2013-03-01 09:29:00,
2013-03-01 01:34:00,49.5,44.8,30.34,North,-999,0.0,1.6,84,0.05,,,0.12,pywws,2013-03-01 09:34:00,
2013-03-01 01:40:00,49.6,45.0,30.34,West,270,1.6,3.8,84,0.04,,,0.12,pywws,2013-03-01 09:40:00,
2013-03-01 01:46:00,49.6,45.0,30.35,East,90,1.6,3.1,84,0.04,,,0.12,pywws,2013-03-01 09:46:00,
2013-03-01 01:51:00,49.6,45.0,30.35,East,90,3.1,6.0,84,0.04,,,0.13,pywws,2013-03-01 09:51:00,
2013-03-01 01:57:00,49.8,45.2,30.35,SE,135,0.7,2.2,84,0.02,,,0.13,pywws,2013-03-01 09:57:00,
2013-03-01 02:02:00,50.4,45.4,30.36,South,180,3.8,6.9,83,0.02,,,0.13,pywws,2013-03-01 10:02:00,
2013-03-01 02:08:00,50.4,45.1,30.35,South,180,2.2,3.8,82,0.01,,,0.13,pywws,2013-03-01 10:08:00,
2013-03-01 02:14:00,50.0,44.7,30.36,South,180,2.2,3.8,82,0.01,,,0.13,pywws,2013-03-01 10:14:00,
2013-03-01 02:19:00,50.5,45.3,30.36,North,0,2.2,3.1,82,0.01,,,0.13,pywws,2013-03-01 10:19:00,
2013-03-01 02:25:00,50.5,45.3,30.35,NE,45,3.1,9.2,82,0.01,,,0.13,pywws,2013-03-01 10:25:00,
2013-03-01 02:30:00,50.5,45.3,30.36,South,180,2.2,3.1,82,0.01,,,0.13,pywws,2013-03-01 10:30:00,
2013-03-01 02:36:00,50.4,45.1,30.36,SE,135,1.6,3.1,82,0.01,,,0.13,pywws,2013-03-01 10:36:00,
2013-03-01 02:42:00,50.4,45.1,30.36,North,0,3.1,7.6,82,0.01,,,0.13,pywws,2013-03-01 10:42:00,
2013-03-01 02:47:00,50.5,45.3,30.36,South,180,1.6,2.2,82,0.01,,,0.13,pywws,2013-03-01 10:47:00,
2013-03-01 02:53:00,50.7,45.4,30.36,NE,45,4.5,7.6,82,0.00,,,0.13,pywws,2013-03-01 10:53:00,
2013-03-01 02:58:00,50.9,45.3,30.34,West,270,3.1,3.8,81,0.00,,,0.13,pywws,2013-03-01 10:58:00,
2013-03-01 03:04:00,50.7,45.1,30.35,South,180,3.8,5.4,81,0.01,,,0.14,pywws,2013-03-01 11:04:00,
2013-03-01 03:10:00,50.5,44.9,30.35,South,180,0.7,2.2,81,0.01,,,0.14,pywws,2013-03-01 11:10:00,
2013-03-01 03:15:00,50.5,44.9,30.34,South,180,3.8,9.2,81,0.01,,,0.14,pywws,2013-03-01 11:15:00,
2013-03-01 03:21:00,50.7,44.8,30.34,North,0,1.6,3.8,80,0.01,,,0.14,pywws,2013-03-01 11:21:00,
2013-03-01 03:26:00,50.9,45.0,30.34,NW,315,2.2,3.8,80,0.01,,,0.14,pywws,2013-03-01 11:26:00,
2013-03-01 03:32:00,51.1,44.8,30.35,SE,135,4.5,6.9,79,0.01,,,0.14,pywws,2013-03-01 11:32:00,
2013-03-01 03:38:00,50.7,44.4,30.34,South,180,4.5,8.3,79,0.01,,,0.14,pywws,2013-03-01 11:38:00,
2013-03-01 03:43:00,50.4,44.4,30.34,SW,225,1.6,3.1,80,0.01,,,0.14,pywws,2013-03-01 11:43:00,
2013-03-01 03:49:00,50.2,44.3,30.34,North,0,2.2,3.1,80,0.01,,,0.14,pywws,2013-03-01 11:49:00,
2013-03-01 03:54:00,50.9,45.0,30.34,NW,315,1.6,3.1,80,0.01,,,0.14,pywws,2013-03-01 11:54:00,
2013-03-01 04:00:00,50.9,45.0,30.34,East,90,1.6,4.5,80,0.02,,,0.15,pywws,2013-03-01 12:00:00,
2013-03-01 04:06:00,50.9,45.0,30.34,East,90,1.6,4.5,80,0.01,,,0.15,pywws,2013-03-01 12:06:00,
2013-03-01 04:11:00,50.5,44.6,30.33,South,180,1.6,3.8,80,0.01,,,0.15,pywws,2013-03-01 12:11:00,
2013-03-01 04:17:00,50.7,44.8,30.34,SE,135,2.2,3.1,80,0.01,,,0.15,pywws,2013-03-01 12:17:00,
2013-03-01 04:22:00,49.8,44.5,30.33,West,270,2.2,5.4,82,0.01,,,0.15,pywws,2013-03-01 12:22:00,
2013-03-01 04:28:00,49.8,44.5,30.34,East,90,0.7,1.6,82,0.01,,,0.15,pywws,2013-03-01 12:28:00,
2013-03-01 04:34:00,49.5,44.5,30.33,South,180,2.2,2.2,83,0.01,,,0.15,pywws,2013-03-01 12:34:00,
2013-03-01 04:39:00,49.6,45.0,30.33,North,-999,0.0,0.0,84,0.01,,,0.15,pywws,2013-03-01 12:39:00,
2013-03-01 04:45:00,49.5,44.8,30.34,South,180,0.7,2.2,84,0.01,,,0.15,pywws,2013-03-01 12:45:00,
2013-03-01 04:50:00,49.3,44.7,30.34,North,-999,0.0,1.6,84,0.01,,,0.15,pywws,2013-03-01 12:50:00,
2013-03-01 04:56:00,50.7,45.4,30.34,South,180,1.6,4.5,82,0.01,,,0.15,pywws,2013-03-01 12:56:00,
2013-03-01 05:02:00,50.7,45.1,30.33,East,90,3.8,5.4,81,0.00,,,0.15,pywws,2013-03-01 13:02:00,
2013-03-01 05:07:00,50.4,44.8,30.33,NW,315,3.1,7.6,81,0.00,,,0.15,pywws,2013-03-01 13:07:00,
2013-03-01 05:13:00,50.5,44.6,30.34,South,180,1.6,3.1,80,0.00,,,0.15,pywws,2013-03-01 13:13:00,
2013-03-01 05:18:00,51.4,45.1,30.34,SE,135,2.2,4.5,79,0.00,,,0.15,pywws,2013-03-01 13:18:00,
2013-03-01 05:24:00,51.3,44.6,30.34,North,-999,0.0,1.6,78,0.00,,,0.15,pywws,2013-03-01 13:24:00,
2013-03-01 05:30:00,51.1,44.5,30.35,East,90,3.1,5.4,78,0.00,,,0.15,pywws,2013-03-01 13:30:00,
2013-03-01 05:35:00,51.6,45.0,30.34,East,90,1.6,2.2,78,0.00,,,0.15,pywws,2013-03-01 13:35:00,
2013-03-01 05:41:00,51.1,44.5,30.34,North,0,3.8,6.9,78,0.00,,,0.15,pywws,2013-03-01 13:41:00,
2013-03-01 05:46:00,51.1,44.5,30.34,SE,135,5.4,9.8,78,0.00,,,0.15,pywws,2013-03-01 13:46:00,
2013-03-01 05:52:00,51.8,44.8,30.34,NE,45,2.2,3.8,77,0.00,,,0.15,pywws,2013-03-01 13:52:00,
2013-03-01 05:58:00,52.5,45.2,30.35,East,90,2.2,3.1,76,0.00,,,0.15,pywws,2013-03-01 13:58:00,
2013-03-01 06:03:00,52.0,44.7,30.34,North,0,3.1,4.5,76,0.00,,,0.15,pywws,2013-03-01 14:03:00,
2013-03-01 06:09:00,51.3,44.3,30.35,North,0,1.6,2.2,77,0.00,,,0.15,pywws,2013-03-01 14:09:00,
2013-03-01 06:14:00,51.3,44.6,30.35,West,270,1.6,3.8,78,0.00,,,0.15,pywws,2013-03-01 14:14:00,
2013-03-01 06:20:00,52.2,44.8,30.34,North,0,3.1,6.0,76,0.00,,,0.15,pywws,2013-03-01 14:20:00,
2013-03-01 06:26:00,52.3,45.0,30.35,South,180,3.1,6.0,76,0.00,,,0.15,pywws,2013-03-01 14:26:00,
2013-03-01 06:31:00,53.6,45.5,30.34,West,270,3.1,4.5,74,0.00,,,0.15,pywws,2013-03-01 14:31:00,
2013-03-01 06:37:00,52.5,44.8,30.35,NE,45,3.1,6.9,75,0.00,,,0.15,pywws,2013-03-01 14:37:00,
2013-03-01 06:42:00,52.5,44.8,30.35,South,180,3.1,4.5,75,0.00,,,0.15,pywws,2013-03-01 14:42:00,
2013-03-01 06:48:00,53.1,45.3,30.35,South,180,2.2,3.8,75,0.00,,,0.15,pywws,2013-03-01 14:48:00,
2013-03-01 06:54:00,52.3,44.7,30.35,SE,135,3.1,6.0,75,0.00,,,0.15,pywws,2013-03-01 14:54:00,
2013-03-01 06:59:00,53.2,45.5,30.35,South,180,2.2,3.8,75,0.00,,,0.15,pywws,2013-03-01 14:59:00,
2013-03-01 07:05:00,53.4,45.7,30.35,South,180,1.6,3.1,75,0.00,,,0.15,pywws,2013-03-01 15:05:00,
2013-03-01 07:10:00,52.3,44.7,30.34,South,180,3.8,6.9,75,0.00,,,0.15,pywws,2013-03-01 15:10:00,
2013-03-01 07:16:00,52.9,45.2,30.34,West,270,2.2,3.1,75,0.00,,,0.15,pywws,2013-03-01 15:16:00,
2013-03-01 07:25:00,52.5,44.8,30.35,West,270,1.6,2.2,75,0.00,,,0.14,pywws,2013-03-01 15:25:00,
2013-03-01 07:30:00,52.9,45.2,30.34,North,0,2.2,6.0,75,0.00,,,0.14,pywws,2013-03-01 15:30:00,
2013-03-01 07:35:00,52.5,44.8,30.35,West,270,3.1,4.5,75,0.00,,,0.14,pywws,2013-03-01 15:35:00,
2013-03-01 07:40:00,52.9,45.2,30.36,West,270,1.6,3.1,75,0.00,,,0.14,pywws,2013-03-01 15:40:00,
2013-03-01 07:45:00,52.7,45.0,30.36,North,0,3.8,6.0,75,0.00,,,0.14,pywws,2013-03-01 15:45:00,
2013-03-01 07:50:00,53.6,45.5,30.36,South,180,0.7,2.2,74,0.00,,,0.14,pywws,2013-03-01 15:50:00,
2013-03-01 07:55:00,52.9,45.2,30.35,NW,315,3.1,8.3,75,0.00,,,0.14,pywws,2013-03-01 15:55:00,
2013-03-01 08:00:00,53.6,45.2,30.36,North,0,1.6,3.1,73,0.00,,,0.14,pywws,2013-03-01 16:00:00,
2013-03-01 08:05:00,53.6,45.2,30.36,NW,315,3.1,7.6,73,0.00,,,0.14,pywws,2013-03-01 16:05:00,
2013-03-01 08:10:00,53.1,45.0,30.36,North,0,0.7,3.1,74,0.00,,,0.14,pywws,2013-03-01 16:10:00,
2013-03-01 08:15:00,52.7,45.0,30.36,North,0,0.7,1.6,75,0.00,,,0.14,pywws,2013-03-01 16:15:00,
2013-03-01 08:20:00,53.2,45.5,30.36,East,90,1.6,3.1,75,0.00,,,0.14,pywws,2013-03-01 16:20:00,
2013-03-01 08:25:00,54.0,45.5,30.37,North,0,1.6,3.8,73,0.00,,,0.14,pywws,2013-03-01 16:25:00,
2013-03-01 08:30:00,54.0,45.5,30.37,North,0,1.6,4.5,73,0.00,,,0.14,pywws,2013-03-01 16:30:00,
2013-03-01 08:35:00,54.0,45.5,30.37,South,180,3.1,4.5,73,0.00,,,0.14,pywws,2013-03-01 16:35:00,
2013-03-01 08:40:00,53.1,45.0,30.37,South,180,0.7,1.6,74,0.00,,,0.14,pywws,2013-03-01 16:40:00,
2013-03-01 08:45:00,53.8,45.3,30.37,West,270,2.2,4.5,73,0.00,,,0.14,pywws,2013-03-01 16:45:00,
2013-03-01 08:50:00,52.9,44.8,30.36,South,180,2.2,3.8,74,0.00,,,0.14,pywws,2013-03-01 16:50:00,
2013-03-01 08:55:00,53.1,45.0,30.37,SE,135,1.6,2.2,74,0.00,,,0.14,pywws,2013-03-01 16:55:00,
2013-03-01 09:00:00,53.1,45.0,30.37,North,0,2.2,3.8,74,0.00,,,0.14,pywws,2013-03-01 17:00:00,
2013-03-01 09:11:00,53.1,45.3,30.37,South,180,0.7,2.2,75,0.00,,,0.14,pywws,2013-03-01 17:11:00,
2013-03-01 09:16:00,52.9,45.2,30.37,South,180,2.2,3.8,75,0.00,,,0.14,pywws,2013-03-01 17:16:00,
2013-03-01 09:22:00,52.7,45.0,30.37,South,180,1.6,2.2,75,0.00,,,0.14,pywws,2013-03-01 17:22:00,
2013-03-01 09:27:00,52.7,45.0,30.38,South,180,1.6,3.1,75,0.00,,,0.14,pywws,2013-03-01 17:27:00,
2013-03-01 09:33:00,52.0,44.7,30.37,North,-999,0.0,2.2,76,0.00,,,0.14,pywws,2013-03-01 17:33:00,
2013-03-01 09:38:00,52.2,44.8,30.38,SE,135,2.2,3.1,76,0.00,,,0.14,pywws,2013-03-01 17:38:00,
2013-03-01 09:44:00,52.2,44.8,30.38,North,0,3.1,5.4,76,0.00,,,0.14,pywws,2013-03-01 17:44:00,
2013-03-01 09:50:00,53.2,45.5,30.37,West,270,1.6,2.2,75,0.00,,,0.14,pywws,2013-03-01 17:50:00,
2013-03-01 09:55:00,52.9,45.2,30.37,North,0,2.2,3.1,75,0.00,,,0.14,pywws,2013-03-01 17:55:00,
2013-03-01 10:01:00,53.1,45.3,30.39,South,180,1.6,5.4,75,0.00,,,0.14,pywws,2013-03-01 18:01:00,
2013-03-01 10:06:00,53.2,45.5,30.38,North,-999,0.0,0.0,75,0.00,,,0.14,pywws,2013-03-01 18:06:00,
2013-03-01 10:12:00,53.2,45.5,30.38,SW,225,0.7,2.2,75,0.00,,,0.14,pywws,2013-03-01 18:12:00,
2013-03-01 10:18:00,53.1,45.3,30.38,South,180,2.2,3.8,75,0.00,,,0.14,pywws,2013-03-01 18:18:00,
2013-03-01 10:23:00,52.7,45.0,30.38,South,180,1.6,3.1,75,0.00,,,0.14,pywws,2013-03-01 18:23:00,
2013-03-01 10:29:00,53.2,45.5,30.38,South,180,0.7,2.2,75,0.00,,,0.14,pywws,2013-03-01 18:29:00,
2013-03-01 10:34:00,53.2,45.5,30.38,South,180,0.7,2.2,75,0.00,,,0.14,pywws,2013-03-01 18:34:00,
2013-03-01 10:40:00,52.7,45.0,30.38,SW,225,1.6,3.1,75,0.00,,,0.14,pywws,2013-03-01 18:40:00,
2013-03-01 10:46:00,52.9,45.2,30.38,North,0,3.1,5.4,75,0.00,,,0.14,pywws,2013-03-01 18:46:00,
2013-03-01 10:51:00,53.4,45.7,30.38,NW,315,0.7,1.6,75,0.00,,,0.14,pywws,2013-03-01 18:51:00,
2013-03-01 10:57:00,54.0,45.5,30.38,West,270,0.7,2.2,73,0.00,,,0.14,pywws,2013-03-01 18:57:00,
2013-03-01 11:02:00,54.5,45.7,30.38,North,0,1.6,3.8,72,0.00,,,0.14,pywws,2013-03-01 19:02:00,
2013-03-01 11:08:00,54.5,45.7,30.39,SE,135,2.2,5.4,72,0.00,,,0.14,pywws,2013-03-01 19:08:00,
2013-03-01 11:14:00,54.3,45.5,30.39,West,270,2.2,3.8,72,0.00,,,0.14,pywws,2013-03-01 19:14:00,
2013-03-01 11:19:00,54.1,45.3,30.38,South,180,2.2,5.4,72,0.00,,,0.14,pywws,2013-03-01 19:19:00,
2013-03-01 11:25:00,54.3,45.9,30.38,SW,225,3.1,7.6,73,0.00,,,0.14,pywws,2013-03-01 19:25:00,
2013-03-01 11:30:00,54.3,45.9,30.38,North,0,0.7,3.1,73,0.00,,,0.14,pywws,2013-03-01 19:30:00,
2013-03-01 11:36:00,55.0,46.2,30.38,South,180,0.7,3.1,72,0.00,,,0.14,pywws,2013-03-01 19:36:00,
2013-03-01 11:42:00,54.7,46.2,30.39,SE,135,3.8,6.0,73,0.00,,,0.14,pywws,2013-03-01 19:42:00,
2013-03-01 11:47:00,54.1,45.7,30.38,North,0,1.6,2.2,73,0.00,,,0.14,pywws,2013-03-01 19:47:00,
2013-03-01 11:53:00,54.1,45.7,30.39,East,90,0.7,2.2,73,0.00,,,0.14,pywws,2013-03-01 19:53:00,
2013-03-01 11:58:00,54.5,46.0,30.38,East,90,0.7,2.2,73,0.00,,,0.14,pywws,2013-03-01 19:58:00,
2013-03-01 12:04:00,54.1,45.7,30.38,East,90,0.7,2.2,73,0.00,,,0.14,pywws,2013-03-01 20:04:00,
2013-03-01 12:10:00,54.0,45.5,30.38,East,90,0.7,2.2,73,0.00,,,0.14,pywws,2013-03-01 20:10:00,
2013-03-01 12:15:00,54.0,45.9,30.38,North,-999,0.0,0.7,74,0.00,,,0.14,pywws,2013-03-01 20:15:00,
2013-03-01 12:21:00,54.0,45.9,30.37,East,90,1.6,2.2,74,0.00,,,0.14,pywws,2013-03-01 20:21:00,
2013-03-01 12:26:00,54.1,46.0,30.37,SE,135,0.7,3.1,74,0.00,,,0.14,pywws,2013-03-01 20:26:00,
2013-03-01 12:32:00,54.3,46.2,30.37,West,270,0.7,2.2,74,0.00,,,0.14,pywws,2013-03-01 20:32:00,
2013-03-01 12:38:00,54.3,46.2,30.37,North,-999,0.0,0.7,74,0.00,,,0.14,pywws,2013-03-01 20:38:00,
2013-03-01 12:43:00,54.7,46.2,30.37,East,90,1.6,2.2,73,0.00,,,0.14,pywws,2013-03-01 20:43:00,
2013-03-01 12:49:00,54.5,46.0,30.37,East,90,1.6,3.8,73,0.00,,,0.14,pywws,2013-03-01 20:49:00,
2013-03-01 12:54:00,54.5,46.4,30.36,North,-999,0.0,0.7,74,0.00,,,0.14,pywws,2013-03-01 20:54:00,
2013-03-01 13:00:00,54.9,46.4,30.36,NE,45,2.2,3.8,73,0.00,,,0.14,pywws,2013-03-01 21:00:00,
2013-03-01 13:06:00,54.7,46.6,30.36,SE,135,0.7,1.6,74,0.00,,,0.14,pywws,2013-03-01 21:06:00,
2013-03-01 13:11:00,54.7,46.2,30.36,East,90,0.7,1.6,73,0.00,,,0.14,pywws,2013-03-01 21:11:00,
2013-03-01 13:17:00,54.5,46.4,30.36,East,90,1.6,2.2,74,0.00,,,0.14,pywws,2013-03-01 21:17:00,
2013-03-01 13:22:00,54.5,46.4,30.36,East,90,0.7,1.6,74,0.00,,,0.14,pywws,2013-03-01 21:22:00,
2013-03-01 13:28:00,54.9,46.7,30.36,North,-999,0.0,0.7,74,0.00,,,0.14,pywws,2013-03-01 21:28:00,
2013-03-01 13:34:00,55.0,46.9,30.36,North,-999,0.0,0.0,74,0.00,,,0.14,pywws,2013-03-01 21:34:00,
2013-03-01 13:39:00,55.4,47.6,30.36,North,-999,0.0,0.0,75,0.00,,,0.14,pywws,2013-03-01 21:39:00,
2013-03-01 13:45:00,55.2,47.4,30.36,East,90,1.6,2.2,75,0.00,,,0.14,pywws,2013-03-01 21:45:00,
2013-03-01 13:50:00,56.1,47.6,30.36,South,180,0.7,1.6,73,0.00,,,0.14,pywws,2013-03-01 21:50:00,
2013-03-01 13:56:00,56.1,47.6,30.35,East,90,0.7,1.6,73,0.00,,,0.14,pywws,2013-03-01 21:56:00,
2013-03-01 14:02:00,55.8,47.2,30.35,North,-999,0.0,0.7,73,0.00,,,0.14,pywws,2013-03-01 22:02:00,
2013-03-01 14:07:00,55.8,46.9,30.35,East,90,0.7,1.6,72,0.00,,,0.14,pywws,2013-03-01 22:07:00,
2013-03-01 14:13:00,55.4,46.5,30.35,North,-999,0.0,1.6,72,0.00,,,0.14,pywws,2013-03-01 22:13:00,
2013-03-01 14:18:00,55.4,46.5,30.35,East,90,0.7,2.2,72,0.00,,,0.14,pywws,2013-03-01 22:18:00,
2013-03-01 14:24:00,55.4,46.9,30.35,South,180,0.7,2.2,73,0.00,,,0.14,pywws,2013-03-01 22:24:00,
2013-03-01 14:30:00,55.6,47.1,30.35,West,270,0.7,2.2,73,0.00,,,0.14,pywws,2013-03-01 22:30:00,
2013-03-01 14:35:00,55.6,47.1,30.35,West,270,1.6,3.8,73,0.00,,,0.14,pywws,2013-03-01 22:35:00,
2013-03-01 14:41:00,55.6,46.7,30.35,North,-999,0.0,0.7,72,0.00,,,0.14,pywws,2013-03-01 22:41:00,
2013-03-01 14:46:00,55.6,47.1,30.35,East,90,1.6,2.2,73,0.00,,,0.14,pywws,2013-03-01 22:46:00,
2013-03-01 14:52:00,55.9,47.0,30.34,North,-999,0.0,0.7,72,0.00,,,0.14,pywws,2013-03-01 22:52:00,
2013-03-01 14:58:00,55.8,46.9,30.35,North,-999,0.0,1.6,72,0.00,,,0.14,pywws,2013-03-01 22:58:00,
2013-03-01 15:03:00,55.4,46.5,30.35,East,90,0.7,1.6,72,0.00,,,0.14,pywws,2013-03-01 23:03:00,
2013-03-01 15:09:00,55.0,46.5,30.34,North,-999,0.0,0.0,73,0.00,,,0.14,pywws,2013-03-01 23:09:00,
2013-03-01 15:14:00,55.4,46.9,30.34,North,0,1.6,3.1,73,0.00,,,0.14,pywws,2013-03-01 23:14:00,
2013-03-01 15:20:00,55.2,46.7,30.34,North,-999,0.0,0.0,73,0.00,,,0.14,pywws,2013-03-01 23:20:00,
2013-03-01 15:26:00,55.0,46.9,30.34,South,180,0.7,2.2,74,0.00,,,0.14,pywws,2013-03-01 23:26:00,
2013-03-01 15:31:00,55.4,46.9,30.34,SE,135,1.6,2.2,73,0.00,,,0.14,pywws,2013-03-01 23:31:00,
2013-03-01 15:37:00,55.2,46.7,30.34,North,-999,0.0,0.0,73,0.00,,,0.14,pywws,2013-03-01 23:37:00,
2013-03-01 15:42:00,55.2,46.7,30.34,East,90,0.7,1.6,73,0.00,,,0.14,pywws,2013-03-01 23:42:00,
2013-03-01 15:48:00,55.4,46.9,30.34,South,180,0.7,1.6,73,0.00,,,0.14,pywws,2013-03-01 23:48:00,
2013-03-01 15:54:00,55.4,46.9,30.34,South,180,2.2,4.5,73,0.00,,,0.14,pywws,2013-03-01 23:54:00,
2013-03-01 15:59:00,56.3,46.6,30.34,South,180,0.7,1.6,70,0.00,,,0.14,pywws,2013-03-01 23:59:00,
2013-03-01 16:05:00,56.3,46.6,30.34,South,180,0.7,1.6,70,0.00,,,0.14,pywws,2013-03-02 00:05:00,
2013-03-01 16:10:00,56.1,46.5,30.34,North,-999,0.0,0.0,70,0.00,,,0.14,pywws,2013-03-02 00:10:00,
2013-03-01 16:16:00,55.8,46.5,30.34,East,90,1.6,2.2,71,0.00,,,0.14,pywws,2013-03-02 00:16:00,
2013-03-01 16:22:00,56.3,47.0,30.34,South,180,2.2,4.5,71,0.00,,,0.14,pywws,2013-03-02 00:22:00,
2013-03-01 16:27:00,56.7,46.6,30.34,South,180,0.7,1.6,69,0.00,,,0.14,pywws,2013-03-02 00:27:00,
2013-03-01 16:33:00,55.8,46.5,30.34,South,180,0.7,2.2,71,0.00,,,0.14,pywws,2013-03-02 00:33:00,
2013-03-01 16:38:00,55.6,46.7,30.34,North,-999,0.0,0.0,72,0.00,,,0.14,pywws,2013-03-02 00:38:00,
2013-03-01 16:44:00,55.2,46.4,30.34,East,90,0.7,2.2,72,0.00,,,0.14,pywws,2013-03-02 00:44:00,
2013-03-01 16:50:00,55.0,46.5,30.34,SE,135,0.7,2.2,73,0.00,,,0.14,pywws,2013-03-02 00:50:00,
2013-03-01 16:55:00,54.9,46.4,30.33,North,-999,0.0,0.0,73,0.00,,,0.14,pywws,2013-03-02 00:55:00,
2013-03-01 17:01:00,54.9,46.4,30.33,East,90,0.7,2.2,73,0.00,,,0.14,pywws,2013-03-02 01:01:00,
2013-03-01 17:06:00,54.7,46.2,30.33,North,-999,0.0,0.0,73,0.00,,,0.14,pywws,2013-03-02 01:06:00,
2013-03-01 17:12:00,54.5,46.4,30.33,North,-999,0.0,0.0,74,0.00,,,0.14,pywws,2013-03-02 01:12:00,
2013-03-01 17:18:00,54.5,46.0,30.33,North,-999,0.0,0.0,73,0.00,,,0.14,pywws,2013-03-02 01:18:00,
2013-03-01 17:23:00,54.3,45.9,30.34,North,-999,0.0,0.0,73,0.00,,,0.14,pywws,2013-03-02 01:23:00,
2013-03-01 17:29:00,54.1,45.7,30.34,East,90,1.6,2.2,73,0.00,,,0.14,pywws,2013-03-02 01:29:00,
2013-03-01 17:34:00,54.1,45.7,30.34,North,-999,0.0,0.7,73,0.00,,,0.14,pywws,2013-03-02 01:34:00,
2013-03-01 17:40:00,54.0,45.5,30.34,SE,135,1.6,2.2,73,0.00,,,0.14,pywws,2013-03-02 01:40:00,
2013-03-01 17:46:00,53.8,45.3,30.34,South,180,0.7,1.6,73,0.00,,,0.14,pywws,2013-03-02 01:46:00,
2013-03-01 17:51:00,53.4,45.3,30.34,North,-999,0.0,0.7,74,0.00,,,0.14,pywws,2013-03-02 01:51:00,
2013-03-01 17:57:00,53.4,45.3,30.34,South,180,0.7,1.6,74,0.00,,,0.14,pywws,2013-03-02 01:57:00,
2013-03-01 18:02:00,53.2,45.2,30.34,SE,135,2.2,3.8,74,0.00,,,0.14,pywws,2013-03-02 02:02:00,
2013-03-01 18:08:00,53.4,45.3,30.34,SE,135,0.7,1.6,74,0.00,,,0.14,pywws,2013-03-02 02:08:00,
2013-03-01 18:14:00,53.4,45.3,30.34,South,180,0.7,1.6,74,0.00,,,0.14,pywws,2013-03-02 02:14:00,
2013-03-01 18:19:00,53.4,45.3,30.34,SE,135,1.6,2.2,74,0.00,,,0.14,pywws,2013-03-02 02:19:00,
2013-03-01 18:25:00,53.8,45.3,30.34,SE,135,2.2,3.8,73,0.00,,,0.14,pywws,2013-03-02 02:25:00,
2013-03-01 18:30:00,53.6,45.2,30.34,North,0,1.6,3.1,73,0.00,,,0.14,pywws,2013-03-02 02:30:00,
2013-03-01 18:36:00,53.4,45.3,30.34,North,-999,0.0,0.0,74,0.00,,,0.14,pywws,2013-03-02 02:36:00,
2013-03-01 18:42:00,53.2,45.2,30.34,SE,135,0.7,2.2,74,0.00,,,0.14,pywws,2013-03-02 02:42:00,
2013-03-01 18:47:00,53.4,45.3,30.34,East,90,0.7,1.6,74,0.00,,,0.14,pywws,2013-03-02 02:47:00,
2013-03-01 18:53:00,53.8,45.0,30.34,North,0,2.2,5.4,72,0.00,,,0.14,pywws,2013-03-02 02:53:00,
2013-03-01 18:58:00,53.2,44.8,30.34,East,90,0.7,1.6,73,0.00,,,0.14,pywws,2013-03-02 02:58:00,
2013-03-01 19:04:00,53.4,45.0,30.34,East,90,1.6,2.2,73,0.00,,,0.14,pywws,2013-03-02 03:04:00,
2013-03-01 19:10:00,53.4,45.3,30.33,East,90,1.6,2.2,74,0.00,,,0.14,pywws,2013-03-02 03:10:00,
2013-03-01 19:15:00,53.4,45.3,30.34,SE,135,2.2,3.1,74,0.00,,,0.14,pywws,2013-03-02 03:15:00,
2013-03-01 19:21:00,53.4,45.3,30.34,East,90,1.6,3.1,74,0.00,,,0.14,pywws,2013-03-02 03:21:00,
2013-03-01 19:26:00,53.4,45.3,30.34,SE,135,1.6,2.2,74,0.00,,,0.14,pywws,2013-03-02 03:26:00,
2013-03-01 19:32:00,54.0,45.1,30.34,South,180,0.7,1.6,72,0.00,,,0.14,pywws,2013-03-02 03:32:00,
2013-03-01 19:38:00,53.2,45.2,30.34,East,90,1.6,1.6,74,0.00,,,0.14,pywws,2013-03-02 03:38:00,
2013-03-01 19:43:00,53.2,45.2,30.34,North,-999,0.0,0.7,74,0.00,,,0.14,pywws,2013-03-02 03:43:00,
2013-03-01 19:49:00,52.9,44.8,30.34,North,0,0.7,2.2,74,0.00,,,0.14,pywws,2013-03-02 03:49:00,
2013-03-01 19:54:00,53.2,45.2,30.34,East,90,1.6,2.2,74,0.00,,,0.14,pywws,2013-03-02 03:54:00,
2013-03-01 20:00:00,52.9,44.8,30.34,South,180,1.6,3.1,74,0.00,,,0.14,pywws,2013-03-02 04:00:00,
2013-03-01 20:06:00,52.9,44.8,30.34,South,180,1.6,3.1,74,0.00,,,0.14,pywws,2013-03-02 04:06:00,
2013-03-01 20:11:00,53.4,45.3,30.33,East,90,1.6,2.2,74,0.00,,,0.14,pywws,2013-03-02 04:11:00,
2013-03-01 20:17:00,54.0,45.1,30.33,NE,45,2.2,3.8,72,0.00,,,0.14,pywws,2013-03-02 04:17:00,
2013-03-01 20:23:00,53.1,45.0,30.33,East,90,1.6,2.2,74,0.00,,,0.14,pywws,2013-03-02 04:23:00,
2013-03-01 20:28:00,52.9,44.8,30.33,North,0,1.6,3.8,74,0.00,,,0.14,pywws,2013-03-02 04:28:00,
2013-03-01 20:34:00,52.5,44.8,30.33,North,-999,0.0,0.0,75,0.00,,,0.14,pywws,2013-03-02 04:34:00,
2013-03-01 20:39:00,52.3,44.7,30.33,North,-999,0.0,1.6,75,0.00,,,0.14,pywws,2013-03-02 04:39:00,
2013-03-01 20:45:00,52.2,44.5,30.32,East,90,1.6,2.2,75,0.00,,,0.14,pywws,2013-03-02 04:45:00,
2013-03-01 20:50:00,52.5,44.8,30.32,SE,135,1.6,2.2,75,0.00,,,0.14,pywws,2013-03-02 04:50:00,
2013-03-01 20:56:00,52.3,44.7,30.33,North,-999,0.0,0.0,75,0.00,,,0.14,pywws,2013-03-02 04:56:00,
2013-03-01 21:00:00,52.2,44.5,30.33,North,-999,0.0,0.0,75,0.00,,,0.14,pywws,2013-03-02 05:00:00,
2013-03-01 21:02:00,52.3,44.7,30.32,North,-999,0.0,1.6,75,0.00,,,0.14,pywws,2013-03-02 05:02:00,
2013-03-01 21:04:00,52.3,44.7,30.33,North,-999,0.0,0.0,75,0.00,,,0.14,pywws,2013-03-02 05:04:00,
2013-03-01 21:10:00,52.3,44.7,30.32,South,180,0.7,1.6,75,0.00,,,0.14,pywws,2013-03-02 05:10:00,
2013-03-01 21:15:00,52.0,44.3,30.32,North,-999,0.0,0.0,75,0.00,,,0.14,pywws,2013-03-02 05:15:00,
2013-03-01 21:21:00,51.8,44.1,30.32,North,-999,0.0,0.0,75,0.00,,,0.14,pywws,2013-03-02 05:21:00,
2013-03-01 21:25:00,51.8,44.1,30.32,East,90,0.7,1.6,75,0.00,,,0.14,pywws,2013-03-02 05:25:00,
2013-03-01 21:30:00,51.4,44.1,30.32,SE,135,0.7,1.6,76,0.00,,,0.14,pywws,2013-03-02 05:30:00,
2013-03-01 21:36:00,51.8,44.1,30.32,North,-999,0.0,0.0,75,0.00,,,0.14,pywws,2013-03-02 05:36:00,
2013-03-01 21:42:00,51.6,44.3,30.32,North,-999,0.0,0.0,76,0.00,,,0.14,pywws,2013-03-02 05:42:00,
2013-03-01 21:47:00,51.3,44.0,30.32,North,-999,0.0,0.0,76,0.00,,,0.14,pywws,2013-03-02 05:47:00,
2013-03-01 21:53:00,51.4,44.1,30.32,North,-999,0.0,0.0,76,0.00,,,0.14,pywws,2013-03-02 05:53:00,
2013-03-01 21:58:00,51.6,44.3,30.32,South,180,0.7,2.2,76,0.00,,,0.14,pywws,2013-03-02 05:58:00,
2013-03-01 22:04:00,51.4,44.1,30.32,North,-999,0.0,0.7,76,0.00,,,0.14,pywws,2013-03-02 06:04:00,
2013-03-01 22:10:00,51.4,44.1,30.32,North,0,0.7,3.1,76,0.00,,,0.14,pywws,2013-03-02 06:10:00,
2013-03-01 22:15:00,51.3,44.3,30.32,North,-999,0.0,0.0,77,0.00,,,0.14,pywws,2013-03-02 06:15:00,
2013-03-01 22:21:00,51.6,44.3,30.32,East,90,1.6,2.2,76,0.00,,,0.14,pywws,2013-03-02 06:21:00,
2013-03-01 22:26:00,53.2,45.5,30.32,North,-999,0.0,0.7,75,0.00,,,0.14,pywws,2013-03-02 06:26:00,
2013-03-01 22:32:00,52.0,44.0,30.32,East,90,2.2,3.8,74,0.00,,,0.14,pywws,2013-03-02 06:32:00,
2013-03-01 22:38:00,53.6,44.8,30.33,North,0,1.6,4.5,72,0.00,,,0.14,pywws,2013-03-02 06:38:00,
2013-03-01 22:43:00,52.3,44.3,30.33,North,-999,0.0,0.7,74,0.00,,,0.14,pywws,2013-03-02 06:43:00,
2013-03-01 22:49:00,52.5,44.5,30.32,East,90,0.7,1.6,74,0.00,,,0.14,pywws,2013-03-02 06:49:00,
2013-03-01 22:54:00,52.0,44.0,30.32,South,180,0.7,1.6,74,0.00,,,0.14,pywws,2013-03-02 06:54:00,
2013-03-01 23:00:00,51.4,44.1,30.32,North,-999,0.0,0.0,76,0.00,,,0.14,pywws,2013-03-02 07:00:00,
2013-03-01 23:06:00,51.1,43.8,30.32,North,-999,0.0,0.0,76,0.00,,,0.14,pywws,2013-03-02 07:06:00,
2013-03-01 23:11:00,50.5,43.6,30.31,North,-999,0.0,0.0,77,0.00,,,0.14,pywws,2013-03-02 07:11:00,
2013-03-01 23:17:00,50.4,43.4,30.32,North,-999,0.0,0.0,77,0.00,,,0.14,pywws,2013-03-02 07:17:00,
2013-03-01 23:22:00,50.5,43.6,30.31,North,-999,0.0,0.0,77,0.00,,,0.14,pywws,2013-03-02 07:22:00,
2013-03-01 23:28:00,50.5,43.6,30.31,East,90,0.7,1.6,77,0.00,,,0.14,pywws,2013-03-02 07:28:00,
2013-03-01 23:34:00,50.5,43.6,30.31,North,-999,0.0,0.0,77,0.00,,,0.14,pywws,2013-03-02 07:34:00,
2013-03-01 23:39:00,50.7,43.8,30.31,East,90,0.7,1.6,77,0.00,,,0.14,pywws,2013-03-02 07:39:00,
2013-03-01 23:45:00,50.5,43.6,30.31,East,90,0.7,1.6,77,0.00,,,0.14,pywws,2013-03-02 07:45:00,
2013-03-01 23:50:00,50.5,43.6,30.31,East,90,0.7,1.6,77,0.00,,,0.14,pywws,2013-03-02 07:50:00,
2013-03-01 23:56:00,50.0,43.1,30.31,North,-999,0.0,0.0,77,0.00,,,0.14,pywws,2013-03-02 07:56:00,